GW7053 Weather Reports


time (UTC)temp
C
wind
direction
speed
KPH
gust
KPH
rain 1hr
cm
rain 24hr
cm
rain mn
cm
humidity
%
barometer
mb
20260505151832 23 251 1.6 6.4 0.00 0.00 0.00 50 1019.6
20260505151329 23 227 1.6 3.2 0.00 0.00 0.00 52 1019.5
20260505150826 23 158 3.2 6.4 0.00 0.00 0.00 50 1019.5
20260505150323 22 241 3.2 12.9 0.00 0.00 0.00 52 1019.5
20260505140252 20 258 1.6 6.4 0.00 0.00 0.00 59 1019.4
20260505130216 19 151 3.2 3.2 0.00 0.00 0.00 61 1019.4
20260505124706 18 98 3.2 6.4 0.00 0.00 0.00 61 1019.8
20260505124203 18 86 3.2 11.3 0.00 0.00 0.00 61 1019.6
20260505123659 18 48 0.0 3.2 0.00 0.00 0.00 62 1019.6
20260505123156 18 63 0.0 3.2 0.00 0.00 0.00 64 1019.7
20260505122652 17 52 0.0 3.2 0.00 0.00 0.00 66 1019.7
20260505122149 17 34 0.0 3.2 0.00 0.00 0.00 67 1019.6
20260505121646 16 96 1.6 1.6 0.00 0.00 0.00 68 1019.5
20260505121143 16 150 3.2 4.8 0.00 0.00 0.00 70 1019.4
20260505120639 15 216 3.2 3.2 0.00 0.00 0.00 71 1019.7
20260505120135 15 59 0.0 1.6 0.00 0.00 0.00 73 1019.6
20260505115629 15 87 0.0 1.6 0.00 0.00 0.00 74 1019.5
20260505115127 15 194 1.6 6.4 0.00 0.00 0.00 75 1019.5
20260505114624 14 56 0.0 0.0 0.00 0.00 0.00 78 1019.3
20260505114120 13 69 0.0 0.0 0.00 0.00 0.00 80 1019.3
20260505113617 12 52 0.0 0.0 0.00 0.00 0.00 85 1019.5
20260505113114 12 54 0.0 0.0 0.00 0.00 0.00 87 1019.5
20260505112610 11 31 0.0 0.0 0.00 0.00 0.00 88 1019.4
20260505112109 11 28 0.0 0.0 0.00 0.00 0.00 89 1019.1
20260505111608 11 32 0.0 0.0 0.00 0.00 0.00 89 1018.9
20260505111103 10 47 0.0 0.0 0.00 0.00 0.00 90 1019.1
20260505110600 10 52 0.0 0.0 0.00 0.00 0.00 90 1018.9
20260505102033 10 40 0.0 0.0 0.00 0.00 0.00 89 1018.5
20260505101531 10 40 0.0 0.0 0.00 0.00 0.00 89 1018.3
20260505101027 10 33 0.0 0.0 0.00 0.00 0.00 89 1018.2
20260505100524 10 33 0.0 0.0 0.00 0.00 0.00 88 1018.4
20260505100021 10 33 0.0 0.0 0.00 0.00 0.00 87 1018.4
20260505095517 11 33 0.0 0.0 0.00 0.00 0.00 87 1018.5
20260505095014 11 33 0.0 0.0 0.00 0.00 0.00 87 1018.3
20260505094510 11 41 0.0 0.0 0.00 0.00 0.00 87 1018.1
20260505094007 11 46 0.0 0.0 0.00 0.00 0.00 87 1018.2
20260505093503 11 47 0.0 0.0 0.00 0.00 0.00 86 1018.2
20260505093000 11 55 0.0 0.0 0.00 0.00 0.00 85 1018.1
20260505092458 11 68 0.0 0.0 0.00 0.00 0.00 85 1018.1
20260505091955 11 49 0.0 0.0 0.00 0.00 0.00 84 1017.9
20260505091453 11 49 0.0 0.0 0.00 0.00 0.00 83 1018.0
20260505090951 11 49 0.0 0.0 0.00 0.00 0.00 83 1018.0
20260505090449 12 63 0.0 0.0 0.00 0.00 0.00 82 1018.0
20260505085946 12 43 0.0 0.0 0.00 0.00 0.00 82 1017.9
20260505085443 12 59 0.0 0.0 0.00 0.00 0.00 81 1018.1
20260505084942 12 66 0.0 0.0 0.00 0.00 0.00 80 1017.8
20260505084440 12 35 0.0 0.0 0.00 0.00 0.00 79 1017.8
20260505083937 12 45 0.0 0.0 0.00 0.00 0.00 78 1017.9
20260505083434 13 50 0.0 0.0 0.00 0.00 0.00 77 1017.9
20260505082931 13 50 0.0 0.0 0.00 0.00 0.00 76 1018.0
20260505082426 13 43 0.0 0.0 0.00 0.00 0.00 76 1017.9
20260505081924 13 35 0.0 0.0 0.00 0.00 0.00 75 1017.7
20260505081420 13 47 0.0 0.0 0.00 0.00 0.00 75 1017.8
20260505080917 13 33 0.0 0.0 0.00 0.00 0.00 75 1017.7
20260505080413 13 60 0.0 0.0 0.00 0.00 0.00 75 1017.7
20260505075908 13 352 0.0 0.0 0.00 0.00 0.00 75 1017.7
20260505075405 13 70 0.0 0.0 0.00 0.00 0.00 75 1017.8
20260505074903 13 38 0.0 0.0 0.00 0.00 0.00 75 1017.6
20260505074400 13 39 0.0 0.0 0.00 0.00 0.00 74 1017.5
20260505073857 13 37 0.0 0.0 0.00 0.00 0.00 74 1017.6
20260505073355 13 38 0.0 0.0 0.00 0.00 0.00 73 1017.6
20260505072852 14 39 0.0 0.0 0.00 0.00 0.00 73 1017.4
20260505072348 14 48 0.0 0.0 0.00 0.00 0.00 72 1017.5
20260505071844 15 48 0.0 0.0 0.00 0.00 0.00 71 1017.5
20260505071340 15 63 0.0 0.0 0.00 0.00 0.00 69 1017.4
20260505070839 15 304 1.6 1.6 0.00 0.00 0.00 69 1017.5
20260505070335 15 50 0.0 0.0 0.00 0.00 0.00 68 1017.3
20260505065830 15 80 0.0 1.6 0.00 0.00 0.00 68 1017.3
20260505065327 15 55 0.0 0.0 0.00 0.00 0.00 67 1017.6
20260505064824 15 45 0.0 0.0 0.00 0.00 0.00 67 1017.5
20260505064321 16 57 0.0 0.0 0.00 0.00 0.00 66 1017.5
20260505063820 16 77 0.0 1.6 0.00 0.00 0.00 65 1017.5
20260505063315 16 108 1.6 3.2 0.00 0.00 0.00 65 1017.4
20260505062812 16 36 0.0 4.8 0.00 0.00 0.00 64 1017.5
20260505062310 16 99 1.6 3.2 0.00 0.00 0.00 64 1017.3
20260505061806 16 43 0.0 1.6 0.00 0.00 0.00 64 1017.4
20260505061304 16 29 0.0 3.2 0.00 0.00 0.00 63 1017.3
20260505060801 16 320 1.6 4.8 0.00 0.00 0.00 63 1017.4
20260505060258 16 335 0.0 3.2 0.00 0.00 0.00 63 1017.5
20260505055754 16 305 1.6 1.6 0.00 0.00 0.00 63 1017.5
20260505055250 16 65 0.0 4.8 0.00 0.00 0.00 63 1017.6
20260505054747 16 83 1.6 3.2 0.00 0.00 0.00 63 1017.4
20260505054245 16 100 3.2 6.4 0.00 0.00 0.00 63 1017.5
20260505053743 16 71 0.0 4.8 0.00 0.00 0.00 62 1017.6
20260505053239 16 231 4.8 4.8 0.00 0.00 0.00 63 1017.5
20260505052737 16 115 0.0 1.6 0.00 0.00 0.00 63 1017.6
20260505052234 17 146 1.6 3.2 0.00 0.00 0.00 62 1017.7
20260505051731 17 146 1.6 4.8 0.00 0.00 0.00 62 1017.5
20260505051229 17 52 0.0 1.6 0.00 0.00 0.00 62 1017.7
20260505050726 17 90 0.0 3.2 0.00 0.00 0.00 61 1017.8
20260505050224 17 110 1.6 1.6 0.00 0.00 0.00 61 1017.8
20260505041654 18 92 1.6 3.2 0.00 0.00 0.00 59 1017.7
20260505041152 18 101 0.0 12.9 0.00 0.00 0.00 58 1017.3
20260505040648 18 280 4.8 11.3 0.00 0.00 0.00 58 1017.5
20260505040146 18 121 1.6 4.8 0.00 0.00 0.00 58 1017.6
20260505035642 18 209 4.8 9.7 0.00 0.00 0.00 57 1017.6
20260505035138 18 224 1.6 9.7 0.00 0.00 0.00 57 1017.5
20260505034635 18 220 1.6 6.4 0.00 0.00 0.00 57 1017.7
20260505034132 18 197 3.2 3.2 0.00 0.00 0.00 57 1017.5
20260505033628 18 223 3.2 3.2 0.00 0.00 0.00 57 1017.6
20260505033127 18 294 3.2 4.8 0.00 0.00 0.00 56 1017.6
20260505032625 18 208 4.8 6.4 0.00 0.00 0.00 56 1017.4
20260505032121 18 63 1.6 4.8 0.00 0.00 0.00 56 1017.5
20260505031618 19 226 3.2 6.4 0.00 0.00 0.00 56 1017.5
20260505031114 19 237 1.6 4.8 0.00 0.00 0.00 56 1017.5
20260505030611 19 53 1.6 3.2 0.00 0.00 0.00 56 1017.4
20260505030107 19 114 3.2 11.3 0.00 0.00 0.00 55 1017.5
20260505025603 19 194 3.2 16.1 0.00 0.00 0.00 56 1017.3
20260505025102 20 220 1.6 6.4 0.00 0.00 0.00 55 1017.5
20260505024559 20 175 1.6 11.3 0.00 0.00 0.00 55 1017.5
20260505024056 20 167 6.4 9.7 0.00 0.00 0.00 55 1017.5
20260505023553 20 203 4.8 6.4 0.00 0.00 0.00 55 1017.5
20260505023051 20 331 1.6 3.2 0.00 0.00 0.00 55 1017.3
20260505022548 20 230 8.0 11.3 0.00 0.00 0.00 54 1017.2
20260505022045 20 202 3.2 6.4 0.00 0.00 0.00 54 1017.2
20260505021542 20 162 6.4 11.3 0.00 0.00 0.00 53 1017.2
20260505021038 20 69 3.2 14.5 0.00 0.00 0.00 52 1017.2
20260505020538 20 145 3.2 4.8 0.00 0.00 0.00 51 1017.2
20260505020035 20 217 8.0 11.3 0.00 0.00 0.00 50 1017.0
20260505015532 20 260 1.6 9.7 0.00 0.00 0.00 48 1017.0
20260505015029 21 206 1.6 4.8 0.00 0.00 0.00 46 1017.0
20260505014526 21 211 4.8 6.4 0.00 0.00 0.00 45 1017.0
20260505014023 21 65 1.6 6.4 0.00 0.00 0.00 42 1016.9
20260505013520 21 164 3.2 4.8 0.00 0.00 0.00 41 1016.8
20260505013018 21 100 1.6 1.6 0.00 0.00 0.00 41 1016.7
20260505012516 21 184 0.0 3.2 0.00 0.00 0.00 40 1016.6
20260505012012 21 53 0.0 1.6 0.00 0.00 0.00 40 1016.5
20260505011508 21 339 3.2 4.8 0.00 0.00 0.00 40 1016.5
20260505011005 21 122 0.0 1.6 0.00 0.00 0.00 40 1016.4
20260505010500 21 70 0.0 4.8 0.00 0.00 0.00 40 1016.5
20260505005957 21 90 0.0 3.2 0.00 0.00 0.00 39 1016.3
20260505005454 22 35 1.6 3.2 0.00 0.00 0.00 39 1016.1
20260505004951 22 88 1.6 1.6 0.00 0.00 0.00 39 1016.2
20260505004448 22 219 1.6 3.2 0.00 0.00 0.00 38 1016.0
20260505003945 22 35 0.0 1.6 0.00 0.00 0.00 38 1016.0
20260505003442 22 124 1.6 3.2 0.00 0.00 0.00 37 1015.9
20260505002938 22 184 1.6 1.6 0.00 0.00 0.00 37 1015.9
20260505002434 22 236 0.0 1.6 0.00 0.00 0.00 36 1015.9
20260505001933 23 239 3.2 4.8 0.00 0.00 0.00 35 1015.9
20260505001430 23 195 3.2 4.8 0.00 0.00 0.00 35 1015.7
20260505000927 23 79 0.0 6.4 0.00 0.00 0.00 34 1015.8
20260505000427 23 199 1.6 4.8 0.00 0.00 0.00 34 1015.9
20260504235922 23 244 1.6 4.8 0.00 0.00 0.00 34 1015.8
20260504235419 23 239 3.2 14.5 0.00 0.00 0.00 33 1015.7
20260504234915 23 139 3.2 6.4 0.00 0.00 0.00 34 1015.6
20260504234413 24 102 0.0 1.6 0.00 0.00 0.00 34 1015.6
20260504233909 24 70 1.6 4.8 0.00 0.00 0.00 33 1015.6
20260504233405 24 106 9.7 11.3 0.00 0.00 0.00 33 1015.6
20260504232902 24 212 4.8 9.7 0.00 0.00 0.00 33 1015.5
20260504232359 25 217 3.2 3.2 0.00 0.00 0.00 32 1015.4
20260504231856 25 228 4.8 4.8 0.00 0.00 0.00 32 1015.3
20260504231352 25 256 3.2 6.4 0.00 0.00 0.00 31 1015.2
20260504230848 25 66 0.0 4.8 0.00 0.00 0.00 30 1015.2
20260504230346 25 194 0.0 9.7 0.00 0.00 0.00 29 1015.3
20260504225845 25 306 1.6 3.2 0.00 0.00 0.00 29 1015.2
20260504225341 25 62 1.6 1.6 0.00 0.00 0.00 28 1015.4
20260504224838 25 236 0.0 4.8 0.00 0.00 0.00 28 1015.2
20260504224335 25 82 0.0 3.2 0.00 0.00 0.00 28 1015.3
20260504223832 25 5 3.2 4.8 0.00 0.00 0.00 28 1015.4
20260504223327 26 23 3.2 4.8 0.00 0.00 0.00 27 1015.3
20260504222824 26 216 1.6 3.2 0.00 0.00 0.00 27 1015.3
20260504222321 26 75 3.2 3.2 0.00 0.00 0.00 27 1015.2
20260504221820 26 309 3.2 4.8 0.00 0.00 0.00 27 1015.5
20260504221316 26 172 6.4 9.7 0.00 0.00 0.00 26 1015.3
20260504220813 26 232 3.2 9.7 0.00 0.00 0.00 27 1015.2
20260504220309 26 191 1.6 3.2 0.00 0.00 0.00 27 1015.4
20260504215807 26 306 3.2 4.8 0.00 0.00 0.00 27 1015.3
20260504215304 26 356 3.2 9.7 0.00 0.00 0.00 27 1015.4
20260504214759 26 352 1.6 3.2 0.00 0.00 0.00 27 1015.3
20260504214256 26 197 4.8 4.8 0.00 0.00 0.00 27 1015.5
20260504213753 26 291 0.0 3.2 0.00 0.00 0.00 27 1015.2
20260504213249 27 312 1.6 12.9 0.00 0.00 0.00 27 1015.4
20260504212746 27 190 0.0 1.6 0.00 0.00 0.00 27 1015.5
20260504212242 27 236 4.8 6.4 0.00 0.00 0.00 26 1015.5
20260504211740 27 115 3.2 9.7 0.00 0.00 0.00 25 1015.5
20260504211236 27 341 1.6 4.8 0.00 0.00 0.00 26 1015.5
20260504210734 27 317 3.2 6.4 0.00 0.00 0.00 26 1015.3
20260504210231 27 241 6.4 9.7 0.00 0.00 0.00 26 1015.6
20260504205727 26 341 1.6 3.2 0.00 0.00 0.00 27 1015.7
20260504205225 26 328 1.6 12.9 0.00 0.00 0.00 27 1015.7
20260504204723 27 229 4.8 6.4 0.00 0.00 0.00 26 1015.5
20260504204221 27 246 1.6 4.8 0.00 0.00 0.00 26 1015.7
20260504203721 27 192 1.6 4.8 0.00 0.00 0.00 27 1015.7
20260504203218 27 252 3.2 6.4 0.00 0.00 0.00 27 1015.7
20260504202717 26 99 3.2 6.4 0.00 0.00 0.00 28 1015.6
20260504202215 26 127 3.2 11.3 0.00 0.00 0.00 27 1016.0
20260504201712 27 66 1.6 1.6 0.00 0.00 0.00 29 1015.9
20260504201209 27 220 3.2 6.4 0.00 0.00 0.00 27 1016.0
20260504200707 27 23 0.0 11.3 0.00 0.00 0.00 28 1016.2
20260504200203 26 215 4.8 9.7 0.00 0.00 0.00 27 1016.2
20260504195659 27 192 3.2 11.3 0.00 0.00 0.00 27 1015.9
20260504195155 26 231 3.2 6.4 0.00 0.00 0.00 28 1016.2
20260504194652 27 206 6.4 12.9 0.00 0.00 0.00 27 1016.1
20260504194148 27 256 3.2 4.8 0.00 0.00 0.00 27 1016.1
20260504193645 27 69 0.0 11.3 0.00 0.00 0.00 27 1016.4
20260504193143 27 8 0.0 6.4 0.00 0.00 0.00 27 1016.3
20260504192640 27 141 3.2 6.4 0.00 0.00 0.00 26 1016.2
20260504192138 27 232 3.2 6.4 0.00 0.00 0.00 26 1016.3
20260504191636 26 94 4.8 6.4 0.00 0.00 0.00 27 1016.4
20260504191132 26 115 3.2 4.8 0.00 0.00 0.00 28 1016.4
20260504190628 26 238 1.6 3.2 0.00 0.00 0.00 28 1016.7
20260504190125 27 317 1.6 3.2 0.00 0.00 0.00 26 1016.5
20260504185622 28 90 0.0 3.2 0.00 0.00 0.00 27 1016.8
20260504185118 27 54 0.0 4.8 0.00 0.00 0.00 28 1016.6
20260504184614 26 179 1.6 4.8 0.00 0.00 0.00 29 1016.9
20260504184109 27 221 4.8 9.7 0.00 0.00 0.00 27 1017.1
20260504183607 26 231 0.0 1.6 0.00 0.00 0.00 28 1016.9
20260504183105 26 70 1.6 6.4 0.00 0.00 0.00 29 1017.1
20260504182601 26 247 6.4 6.4 0.00 0.00 0.00 27 1017.2
20260504182059 26 53 1.6 4.8 0.00 0.00 0.00 29 1017.1
20260504181556 26 195 1.6 9.7 0.00 0.00 0.00 28 1017.3
20260504181054 26 72 0.0 4.8 0.00 0.00 0.00 28 1017.2
20260504180553 27 211 1.6 6.4 0.00 0.00 0.00 28 1017.3
20260504180051 26 52 1.6 3.2 0.00 0.00 0.00 27 1017.4
20260504175548 25 48 1.6 9.7 0.00 0.00 0.00 28 1017.4
20260504175045 25 20 1.6 9.7 0.00 0.00 0.00 27 1017.6
20260504174543 26 278 1.6 3.2 0.00 0.00 0.00 28 1017.4
20260504174039 25 117 1.6 9.7 0.00 0.00 0.00 30 1017.6
20260504173536 26 326 3.2 6.4 0.00 0.00 0.00 30 1017.5
20260504173034 26 359 1.6 3.2 0.00 0.00 0.00 28 1017.7
20260504172530 26 12 1.6 4.8 0.00 0.00 0.00 28 1017.8
20260504172026 26 28 1.6 1.6 0.00 0.00 0.00 28 1017.9
20260504171523 25 66 0.0 4.8 0.00 0.00 0.00 29 1018.1
20260504171020 25 310 1.6 11.3 0.00 0.00 0.00 30 1018.2
20260504170516 25 225 3.2 3.2 0.00 0.00 0.00 28 1017.9
20260504160436 23 172 6.4 11.3 0.00 0.00 0.00 37 1019.1